Home   Weather   Eisenhüttenstadt   Past weeks
Flag for Germany

Past Weather in Eisenhüttenstadt, Brandenburg, Germany — Yesterday and Last 2 Weeks

Now
57 °F

Sunny.


Feels Like: 55 °F
Forecast: 72 / 45 °F
Wind: 10 mph from Southwest

Location: Zielona Gora Airport

Current Time: Sep 21, 2019 at 11:11:59 am

Latest Report: Sep 21, 2019 at 10:00 am


Visibility: 10 mi

Pressure: 30.27 "Hg

Humidity: 63%

Dew Point: 45 °F

Location of EisenhüttenstadtLocation

Past Weather in Eisenhüttenstadt — Graph

°F

Eisenhüttenstadt Temperature Yesterday

Maximum temperature yesterday: 61 °F (at 3:30 pm)
Minimum temperature yesterday: 37 °F (at 5:30 am)
Average temperature yesterday: 53 °F

High & Low Weather Summary for the Past Weeks

 TemperatureHumidityPressure
High73 °F (Sep 13, 12:30 pm)100% (Sep 7, 5:30 pm)30.54 "Hg (Sep 7, 5:30 pm)
Low37 °F (Sep 20, 5:30 am)26% (Sep 6, 4:30 pm)29.74 "Hg (Sep 9, 5:30 pm)
Average57 °F72%30.15 "Hg
* Reported Sep 6 10:00 am — Sep 21 10:00 am, Eisenhüttenstadt. Weather by CustomWeather, © 2019

Note: Actual official high and low records may vary slightly from our data, if they occured in-between our weather recording intervals... More about our weather records

Advertising

Eisenhüttenstadt Weather History for the Previous 24 Hours

Scroll right to see more
 ConditionsComfort  
Time TempWeatherWind HumidityBarometerVisibility
10:00 am
Sat, Sep 21
57 °FSunny.10 mph63%30.27 "Hg10 mi
9:30 am55 °FSunny.9 mph67%30.27 "Hg10 mi
9:00 am54 °FSunny.9 mph72%30.27 "Hg10 mi
8:30 am52 °FSunny.7 mph72%30.27 "Hg10 mi
8:00 am48 °FSunny.5 mph82%30.27 "Hg10 mi
7:30 am46 °FSunny.3 mph87%30.27 "Hg10 mi
7:00 am46 °FSunny.5 mph82%30.27 "Hg10 mi
6:30 am46 °FPassing clouds.6 mph82%30.27 "HgN/A
6:00 am46 °FPassing clouds.7 mph87%30.24 "HgN/A
5:30 am48 °FPassing clouds.7 mph82%30.27 "HgN/A
5:00 am50 °FOvercast.6 mph82%30.27 "HgN/A
10:00 pm
Fri, Sep 20
55 °FClear.7 mph67%30.30 "Hg10 mi
9:30 pm55 °FClear.8 mph67%30.30 "Hg10 mi
9:00 pm55 °FPassing clouds.7 mph67%30.30 "HgN/A
8:30 pm55 °FPassing clouds.5 mph72%30.30 "HgN/A
8:00 pm55 °FPassing clouds.5 mph67%30.30 "HgN/A
7:30 pm57 °FPassing clouds.6 mph63%30.30 "HgN/A
7:00 pm57 °FPartly sunny.6 mph59%30.30 "HgN/A
6:30 pm57 °FPartly sunny.7 mph59%30.30 "HgN/A
6:00 pm57 °FPartly sunny.7 mph59%30.30 "HgN/A
5:30 pm59 °FPartly sunny.9 mph55%30.30 "HgN/A
5:00 pm59 °FPartly sunny.8 mph55%30.30 "HgN/A
4:30 pm59 °FPartly sunny.10 mph51%30.30 "HgN/A
4:00 pm59 °FScattered clouds.12 mph51%30.30 "HgN/A
3:30 pm61 °FPassing clouds.8 mph48%30.30 "HgN/A
3:00 pm59 °FPassing clouds.8 mph51%30.33 "HgN/A
2:30 pm59 °FPassing clouds.9 mph48%30.33 "HgN/A
2:00 pm59 °FScattered clouds.9 mph48%30.33 "HgN/A
1:30 pm59 °FScattered clouds.10 mph48%30.33 "HgN/A
1:00 pm59 °FScattered clouds.10 mph51%30.33 "HgN/A
12:30 pm59 °FPassing clouds.9 mph51%30.33 "HgN/A
12:00 pm59 °FPassing clouds.10 mph55%30.36 "HgN/A
11:30 am57 °FPassing clouds.9 mph63%30.36 "HgN/A
11:00 am55 °FPassing clouds.9 mph67%30.36 "HgN/A
Weather by CustomWeather, © 2019

See weather overview